Hourly Data Report for October 07, 2016

All times are specified in Local Standard Time (LST). Add 1 hour to adjust for Daylight Saving Time where and when it is observed.

ST LEONARD CS
NEW BRUNSWICK

47°09'28.050" N
67°49'55.014" W
245.00 m
810I001
71019
WIY

Download Data

Hourly Data (October 2016)
Hourly Data Report for October 7, 2016
Temp Definition
°C
Dew Point Temp Definition
°C
Rel Hum Definition
%
Wind Dir Definition
10's deg

Wind Spd Definition
km/h
Visibility Definition
km
Stn Press Definition
kPa
Hmdx Definition


Wind Chill Definition


Weather Definition


TIME
00:00 11.2 9.0 86 28 9   99.40     LegendNANA
01:00 8.0 6.0 87 30 6   99.41     LegendNANA
02:00 7.0 6.0 93 14 4   99.44     LegendNANA
03:00 6.4 5.7 95 15 4   99.48     LegendNANA
04:00 5.9 5.2 95 17 3   99.48     LegendNANA
05:00 5.0 4.4 96 20 4   99.50     LegendNANA
06:00 3.9 3.3 97 14 4   99.52     LegendNANA
07:00 5.5 5.1 98 15 2   99.55     LegendNANA
08:00 6.2 5.9 98 5 2   99.58     LegendNANA
09:00 9.1 8.8 98 26 2   99.58     LegendNANA
10:00 13.4 10.8 84 29 5   99.57     LegendNANA
11:00 16.0 11.2 73 23 6   99.55     LegendNANA
12:00 18.1 11.1 64 27 9   99.50     LegendNANA
13:00 20.8 11.2 54 28 12   99.46     LegendNANA
14:00 22.0 10.0 46 31 10   99.41     LegendNANA
15:00 22.7 9.2 42 27 9   99.41     LegendNANA
16:00 22.9 8.5 40 25 8   99.37     LegendNANA
17:00 21.9 9.0 44 21 8   99.33     LegendNANA
18:00 17.2 10.4 65 14 7   99.30     LegendNANA
19:00 16.0 10.5 70 14 9   99.28     LegendNANA
20:00 15.4 10.1 71 14 11   99.30     LegendNANA
21:00 14.8 8.9 68 15 11   99.28     LegendNANA
22:00 13.7 9.3 75 14 12   99.27     LegendNANA
23:00 12.2 8.8 80 14 5   99.26     LegendNANA

Notes on Data Quality.

Legend

  • E = Estimated
  • M = Missing
  • NA = Not Available
  • ‡ = Partner data that is not subject to review by the National Climate Archives
Date modified: